Regional Weather Roundup
Issued by NWS

Home | Current Version | Previous Version | Text Only | Print | Product List | Glossary On
Versions: 1 2 3 4 5 6 7 8 9 10 11 12 13 14 15 16 17 18 19 20 21 22 23 24 25 26 27 28 29 30 31 32 33 34 35 36 37 38 39 40 41 42 43 44 45 46 47 48 49 50
000
ASUS43 KLMK 230510
RWRKY
KENTUCKY REGIONAL WEATHER ROUNDUP
NATIONAL WEATHER SERVICE LOUISVILLE KY
100 AM EDT THU OCT 23 2014

NOTE "FAIR" INDICATES FEW OR NO CLOUDS BELOW 12,000 FEET
WITH NO SIGNIFICANT WEATHER AND/OR OBSTRUCTIONS TO VISIBILITY.

KYZ001>023-026-027-061>063-070>075-230600-
WESTERN AND SOUTH CENTRAL KENTUCKY

CITY           SKY/WX    TMP DP  RH WIND       PRES   REMARKS
PADUCAH        CLEAR     42  40  92 CALM      30.22F
HENDERSON      CLEAR    N/A N/A N/A CALM      30.24S
OWENSBORO      CLEAR     44  41  89 CALM      30.25R
HOPKINSVILLE   CLEAR     45  42  88 NE7       30.22S
BOWLING GREEN  CLEAR     43  39  86 CALM      30.24S
GLASGOW        CLEAR     40  40 100 CALM      30.23S
$$

KYZ024-025-028>034-038-045-046-053-230600-
NORTH CENTRAL KENTUCKY

CITY           SKY/WX    TMP DP  RH WIND       PRES   REMARKS
LOUISVILLE/SDF CLEAR     47  40  76 SE8       30.25S
LOUISVILLE/LOU CLEAR     46  39  76 CALM      30.26S
FORT KNOX      CLEAR     42  39  89 NE3       30.24S
$$

KYZ035>037-039>044-047>052-055>060-089>105-230600-
NORTHEAST KENTUCKY

CITY           SKY/WX    TMP DP  RH WIND       PRES   REMARKS
LEXINGTON      CLOUDY    51  40  65 NE9       30.24F
COVINGTON      CLOUDY    49  38  65 NE6       30.26S
FRANKFORT      CLOUDY    45  39  79 CALM      30.24S
$$

KYZ054-064>069-076>088-106>120-230600-
SOUTHEAST KENTUCKY

CITY           SKY/WX    TMP DP  RH WIND       PRES   REMARKS
JACKSON        CLOUDY    47  42  83 CALM      30.22F
LONDON         CLOUDY    49  42  77 CALM      30.22F
SOMERSET       CLOUDY    45  39  81 CALM      30.24S
MIDDLESBORO    CLOUDY    48  43  82 CALM      30.22F
MONTICELLO     CLEAR     41  39  92 CALM      30.24F
$$




USA.gov is the U.S. government's official web portal to all federal, state and local government web resources and services.